This demonstration page uses our WeatherBlox Daily Observations layout. Learn more.

Left ArrowRight Arrow

Hourly Observations for November 23, 2019

Temp ( °F °C ) Dew Point ( °F °C ) Humidity (%) Winds ( mph kmh ) Pressure ( in mb ) Visibility ( mi km ) Precip ( " mm )
12:56 am 00:56 Clear 26 -3.3 25 -3.9 96 96 WSW 7 11 30.05 1018 10 16 0.00 0.00
1:56 am 01:56 Clear 26 -3.3 24 -4.4 92 92 SW 7 11 30.03 1017 10 16 0.00 0.00
2:56 am 02:56 Clear 24 -4.4 23 -5 96 96 SW 7 11 30.02 1017 10 16 0.00 0.00
3:56 am 03:56 Clear 23 -5 22 -5.6 96 96 SW 7 11 30.01 1016 10 16 0.00 0.00
4:56 am 04:56 Clear 23 -5 21 -6.1 92 92 SW 6 9 29.99 1016 10 16 0.00 0.00
5:56 am 05:56 Clear 23 -5 21 -6.1 92 92 W 7 11 29.99 1016 10 16 0.00 0.00
6:56 am 06:56 Clear 24 -4.4 23 -5 96 96 W 8 13 29.98 1015 10 16 0.00 0.00
7:56 am 07:56 Sunny 26 -3.3 23 -5 88 88 W 8 13 29.99 1016 10 16 0.00 0.00
8:56 am 08:56 Sunny 32 0 29 -1.7 88 88 NW 12 19 29.99 1016 10 16 0.00 0.00
9:56 am 09:56 Sunny 37 2.8 29 -1.7 73 73 NW 10 17 30.00 1016 10 16 0.00 0.00
10:56 am 10:56 Sunny 42 5.6 31 -0.6 65 65 NNW 14 22 30.00 1016 10 16 0.00 0.00
11:56 am 11:56 Sunny 47 8.3 31 -0.6 54 54 NW 13 20 29.97 1015 10 16 0.00 0.00
12:56 pm 12:56 Sunny 50 10 31 -0.6 48 48 NNW 14 22 29.95 1014 10 16 0.00 0.00
1:56 pm 13:56 Sunny 53 11.7 29 -1.7 40 40 NW 16 26 29.93 1014 10 16 0.00 0.00
2:56 pm 14:56 Sunny 55 12.8 27 -2.8 34 34 NNW 14 22 29.92 1013 10 16 0.00 0.00
3:56 pm 15:56 Sunny 55 12.8 26 -3.3 33 33 NNW 9 15 29.93 1014 10 16 0.00 0.00
4:56 pm 16:56 Sunny 51 10.6 29 -1.7 43 43 Calm 29.94 1014 10 16 0.00 0.00
5:56 pm 17:56 Clear 43 6.1 27 -2.8 53 53 S 5 7 29.95 1014 10 16 0.00 0.00
6:56 pm 18:56 Clear 41 5 26 -3.3 55 55 SW 6 9 29.95 1014 10 16 0.00 0.00
7:56 pm 19:56 Clear 39 3.9 26 -3.3 60 60 SW 7 11 29.95 1014 10 16 0.00 0.00
8:56 pm 20:56 Clear 39 3.9 26 -3.3 60 60 WSW 7 11 29.95 1014 10 16 0.00 0.00
9:56 pm 21:56 Clear 39 3.9 26 -3.3 60 60 W 6 9 29.93 1014 10 16 0.00 0.00
10:56 pm 22:56 Clear 36 2.2 25 -3.9 64 64 W 6 9 29.92 1013 10 16 0.00 0.00
11:56 pm 23:56 Clear 36 2.2 25 -3.9 64 64 WNW 8 13 29.92 1013 10 16 0.00 0.00

Powered by AerisWeather